Regional Weather Roundup
Issued by NWS

Home | Current Version | Previous Version | Text Only | Print | Product List | Glossary Off
Versions: 1 2 3 4 5 6 7 8 9 10 11 12 13 14 15 16 17 18 19 20 21 22 23 24 25 26 27 28 29 30 31 32 33 34 35 36 37 38 39 40 41 42 43 44 45 46

000
ASUS43 KDMX 132207
RWRIA

WEATHER ROUNDUP FOR IOWA
NATIONAL WEATHER SERVICE DES MOINES IA
500 PM CDT SUN JUL 13 2014

NOTE: "FAIR" INDICATES FEW OR NO CLOUDS BELOW 12,000 FEET WITH NO
SIGNIFICANT WEATHER AND/OR OBSTRUCTIONS TO VISIBILITY.

* - THESE STATIONS ARE NOT NWS STATIONS...THUS NOT UNDER NWS
QUALITY CONTROL.  THEY ALSO DO NOT REPORT WEATHER SUCH
AS PRECIPITATION OR FOG.

IAZ001>003-012>014-020>022-031>034-043>046-132300-
   NORTHWEST IOWA

CITY           SKY/WX    TMP DP  RH WIND       PRES   REMARKS
CARROLL *      SUNNY     81  63  54 NW9       29.98F HX  82
CHEROKEE *     MOSUNNY   81  61  50 W12       29.98F HX  81
DENISON *      SUNNY     81  63  54 N7        29.98S HX  82
LE MARS *      SUNNY     82  63  51 W9        29.99F HX  83
ORANGE CITY *  SUNNY     82  59  44 W13       29.99S HX  82
SHELDON *      MOSUNNY   81  61  50 W14       29.97F HX  81
SIOUX CITY     MOSUNNY   84  60  44 NW6       29.98F HX  84
SPENCER        MOSUNNY   79  59  50 W12       29.97F HX  80
STORM LAKE *   SUNNY     79  64  61 NW13      29.99F HX  81
$$

IAZ055>058-069>071-079>083-090>094-132300-
   SOUTHWEST IOWA

CITY           SKY/WX    TMP DP  RH WIND       PRES   REMARKS
ATLANTIC *     SUNNY     84  64  51 NW8       29.97F HX  86
AUDUBON *      SUNNY     84  72  65 N6        30.00F HX  89
CLARINDA *     MOSUNNY   86  66  51 CALM      29.99F HX  88
COUNCIL BLFS * MOSUNNY   84  68  58 VRB5      29.98S HX  87
CRESTON *      SUNNY     84  61  45 NW6       29.99F HX  84
HARLAN  *      MOSUNNY   81  70  69 N9G15     30.02S HX  84
LAMONI         MOSUNNY   86  66  51 W6        29.98F HX  88
RED OAK *      PTSUNNY   86  64  48 VRB3      29.98F HX  87
SHENANDOAH *   SUNNY     86  66  51 VRB3      29.99S HX  88
$$

IAZ047>049-059>061-072>074-084-132300-
   CENTRAL IOWA

CITY           SKY/WX    TMP DP  RH WIND       PRES   REMARKS
AMES           MOSUNNY   82  64  54 NW8       29.96F HX  83
ANKENY *       CLOUDY    75  68  78 CALM      29.97S
CHARITON *     SUNNY     84  66  54 W6        29.97S HX  86
DES MOINES     PTSUNNY   83  66  56 N10       29.96F HX  85
GRINNELL*      CLOUDY    70  64  83 SW7       29.98F
KNOXVILLE *    MOSUNNY   79  64  61 N17G24    29.96R HX  81
MARSHALLTOWN   MOSUNNY   82  60  47 NW15      29.95F HX  82
PELLA *        MOSUNNY   79  64  61 N13G18    29.98R HX  81
PERRY *          N/A     81  64  57 NW6       29.98S HX  82
$$

IAZ004>006-015-016-023>025-035-036-132300-
   NORTH CENTRAL IOWA

CITY           SKY/WX    TMP DP  RH WIND       PRES   REMARKS
ALGONA *       SUNNY     81  57  44 W13G20    29.96F HX  81
CLARION *      SUNNY     81  61  50 NW10      29.96F HX  81
ESTHERVILLE    MOSUNNY   81  55  40 W17G24    29.96F HX  81
FORT DODGE *   MOSUNNY   81  63  54 N6        29.98S HX  82
MASON CITY     SUNNY     81  57  43 W15G21    29.96F HX  81
FOREST CITY *  MOSUNNY   79  55  44 W15       29.95F
IOWA FALLS *     N/A     82  59  44 NW10G17   29.97S HX  82
$$

IAZ007>011-017>019-026>030-037>042-050>054-066-132300-
   NORTHEAST IOWA

CITY           SKY/WX    TMP DP  RH WIND       PRES   REMARKS
CEDAR RAPIDS   MOSUNNY   79  66  64 NW7       29.93F HX  81
CHARLES CITY * SUNNY     77  55  47 NW12G20   29.95F
CLINTON *      CLOUDY    72  66  83 CALM      29.94S
DECORAH *        N/A    N/A N/A N/A MISG        N/A
DUBUQUE        MOSUNNY   80  58  46 W17       29.93S HX  80
MONTICELLO *   SUNNY     82  61  47 NW14G22   29.92F HX  83
OELWEIN *      MOSUNNY   79  63  57 NW16G22   29.95S HX  80
WATERLOO       MOSUNNY   82  61  48 NW10      29.93S HX  83
$$

IAZ064-065-067-068-078-132300-
   EAST CENTRAL IOWA

CITY           SKY/WX    TMP DP  RH WIND       PRES   REMARKS
DAVENPORT        N/A     82  66  58 W13G20    29.92F HX  84
IOWA CITY      LGT RAIN  76  66  71 NW6       29.95S
MT. PLEASANT * MOSUNNY   86  59  39 W6        29.94F HX  85
MUSCATINE *    MOSUNNY   86  66  51 W10       29.92F HX  88
QUAD CITIES    MOSUNNY   83  66  56 SW13      29.91F HX  85
$$

IAZ062-063-075>077-085>089-095>099-132300-
   SOUTHEAST IOWA

CITY           SKY/WX    TMP DP  RH WIND       PRES   REMARKS
BURLINGTON     MOSUNNY   83  66  56 CALM      29.94F HX  85
FAIRFIELD *    SUNNY     82  68  61 W7        29.95F HX  85
FORT MADISON * MOSUNNY   84  66  54 CALM      29.96F HX  86
KEOKUK *       PTSUNNY   84  72  65 VRB3      29.94F HX  89
OSKALOOSA *      N/A     84  68  58 W9        29.96S HX  87
CENTERVILLE *  SUNNY     84  68  58 W7        29.98F HX  87
OTTUMWA        SUNNY     84  67  56 W7        29.95F HX  86
WASHINGTON *   MOSUNNY   82  66  57 W9        29.94F HX  85
$$

ABBREVIATIONS USED IN REMARKS
   TC - TEMPERATURES IN CELSIUS
  WCI - WIND CHILL INDEX
   HX - HEAT INDEX
  VSB - VISIBILITY
$$




USA.gov is the U.S. government's official web portal to all federal, state and local government web resources and services.